Location: Stony Creek
(40.9500°S, 175.8500°E)
Time: 10:10:07
(UTC+00:00)

Cosmos 1980 Rocket - Pass Details

Date: 15 May 2026
Orbit: 827 x 850 km, 71.0° (Epoch: 10 June)

Event Time Altitude Azimuth Distance (km) Brightness Sun altitude
Rises 18:44:23 0° 193° (SSW) 3,404 5.0 -6.7°
Reaches altitude 10° 18:47:26 10° 177° (S) 2,465 4.5 -6.1°
Maximum altitude 18:51:43 22° 128° (SE) 1,772 4.3 -5.4°
Drops below altitude 10° 18:56:00 10° 78° (ENE) 2,452 6.4 -4.6°
Sets 18:59:00 0° 63° (ENE) 3,382 8.1 -4.1°
